[[{"header":{"parameterUnit":"m.s-1","parameterCategory":1,"la1":30.2991,"la2":30.254,"lo1":-89.0895,"lo2":-89.0444,"dy":0.0017,"dx":0.0017,"nx":28,"ny":28,"refTime":"2024-10-17T09:00:00:Z","depth":0,"parameterNumber":2,"parameterNumberName":"U-component_of_WINDS"},"data":[0,0,0,0,0,0,0,0,0,0,0,0,0,0,0,0,0,0,0,0,0,0,0,0,0,0,0,0,0,0,0,0,0,0,0,0,0,0,0,0,0,0,0,0,0,0,0,0,0,0,0,0,0,0,0,0,0,0,-5.0935,-5.0934,0,-5.0926,-5.0925,-5.0925,-5.0781,-5.0777,-5.0774,-5.077,-5.0762,-5.0765,-5.0768,0,0,0,0,0,0,0,0,0,0,0,0,0,-5.0829,-5.0832,-5.0935,-5.0934,-5.0934,-5.0926,-5.0925,-5.0925,-5.0782,-5.0777,-5.0773,-5.0769,-5.0761,-5.0765,-5.0768,0,0,0,0,0,0,0,0,0,0,0,0,0,-5.0853,-5.0832,-5.0935,-5.0862,-5.0855,-5.0926,-5.0925,-5.0925,-5.0783,-5.0777,-5.0772,-5.0766,-5.076,-5.0764,-5.0769,-5.0909,0,0,-5.0784,-5.0786,0,0,0,0,0,0,0,0,-5.0852,-5.0857,-5.0872,-5.0867,-5.0859,-5.0849,-5.0885,-5.092,-5.0784,-5.081,-5.077,-5.0764,-5.0795,-5.0797,-5.0807,-5.0909,-5.0908,-5.0784,-5.0787,-5.0789,-5.079,0,0,0,0,0,0,0,-5.085,-5.0857,-5.0931,-5.0873,-5.0865,-5.083,-5.0827,-5.0891,-5.0834,-5.0807,-5.0797,-5.0798,-5.0791,-5.0803,-5.0806,-5.0908,-5.0784,-5.0788,-5.0791,-5.0793,-5.1125,-5.113,0,0,0,0,0,0,-5.0859,-5.0856,-5.0931,-5.0931,-5.0842,-5.0836,-5.0833,-5.0858,-5.0833,-5.0824,-5.0803,-5.0791,-5.0797,-5.0801,-5.0805,-5.0968,-5.0789,-5.0793,-5.0796,-5.1119,-5.1126,-5.1133,0,0,0,0,0,0,-5.0857,-5.0867,-5.0932,-5.0891,-5.0896,-5.0844,-5.0873,-5.0861,-5.0872,-5.0829,-5.0818,-5.0826,-5.0793,-5.0798,-5.0884,-5.0965,-5.0796,-5.08,-5.1112,-5.1121,-5.1129,-5.1295,0,0,0,0,0,0,-5.0854,-5.0867,-5.0919,-5.0893,-5.0899,-5.1011,-5.0878,-5.0864,-5.0881,-5.0866,-5.0848,-5.0839,-5.0789,-5.0878,-5.0889,-5.0969,-5.0804,-5.1104,-5.1116,-5.1127,-5.1282,-5.1308,-5.1331,0,0,0,0,0,-5.0851,-5.0966,-5.0922,-5.0932,-5.0963,-5.1016,-5.1019,-5.0959,-5.0888,-5.0941,-5.0913,-5.084,-5.0955,-5.0888,-5.0899,-5.0982,-5.1099,-5.1113,-5.1126,-5.1271,-5.1303,-5.133,0,0,0,0,0,0,-5.1003,-5.0961,-5.0912,-5.1022,-5.1024,-5.0992,-5.1055,-5.0995,-5.1017,-5.1002,-5.0927,-5.0924,-5.1022,-5.101,-5.0937,-5.1117,-5.1014,-5.1031,-5.1121,-5.1151,-5.1175,-5.1176,-5.0808,0,0,0,0,0,-5.1049,-5.1095,-5.1056,-5.1157,-5.116,-5.1109,-5.1129,-5.1083,-5.1082,-5.1082,-5.106,-5.1062,-5.1098,-5.1124,-5.1155,-5.1279,-5.1274,-5.1342,-5.1366,-5.1387,-5.1402,-5.1468,-5.1498,-5.1176,-5.1176,-5.1176,0,0,-5.1145,-5.1128,-5.1162,-5.1187,-5.1183,-5.1233,-5.111,-5.1168,-5.1204,-5.109,-5.117,-5.1155,-5.1152,-5.1258,-5.1304,-5.1251,-5.1489,-5.1404,-5.142,-5.1424,-5.1484,-5.1515,-5.1542,-5.1185,-5.1184,-5.1182,0,0,-5.1346,-5.1337,-5.142,-5.1419,-5.1414,-5.1379,-5.14,-5.1377,-5.1362,-5.1441,-5.1357,-5.14,-5.1464,-5.1466,-5.1475,-5.1679,-5.1613,-5.1691,-5.1819,-5.1884,-5.1909,-5.1931,-5.2004,-5.2032,-5.1706,-5.1706,-5.1707,0,-5.1465,-5.1537,-5.1471,-5.1535,-5.1549,-5.1448,-5.1532,-5.1534,-5.1541,-5.1553,-5.1494,-5.1573,-5.1564,-5.167,-5.172,-5.1731,-5.1752,-5.1692,-5.1911,-5.1932,-5.1952,-5.2021,-5.2049,-5.1716,-5.1715,-5.1714,-5.1713,0,-5.1685,-5.1736,-5.1804,-5.1813,-5.1834,-5.1908,-5.1854,-5.1884,-5.1836,-5.1808,-5.1891,-5.1876,-5.1903,-5.1925,-5.1879,-5.2025,-5.1993,-5.1924,-5.1819,-5.1993,-5.2057,-5.2083,-5.173,-5.1726,-5.1723,-5.1721,0,0,-5.198,-5.1952,-5.1978,-5.1981,-5.1969,-5.2008,-5.2078,-5.2104,-5.2132,-5.214,-5.2197,-5.2255,-5.2191,-5.2202,-5.2155,-5.2213,-5.2376,-5.2136,-5.2135,-5.2182,-5.2537,-5.2589,-5.262,-5.2332,-5.2337,-5.234,-5.2537,0,-5.2173,-5.2291,-5.2234,-5.2358,-5.2405,-5.2311,-5.2372,-5.2372,-5.2348,-5.2385,-5.2357,-5.24,-5.2312,-5.2318,-5.2371,-5.2345,-5.2446,-5.233,-5.2385,-5.2388,-5.2389,-5.2653,-5.2708,-5.2894,-5.2561,-5.2565,-5.2568,0,-5.2415,-5.2433,-5.2563,-5.2543,-5.2561,-5.2617,-5.2637,-5.2673,-5.2672,-5.265,-5.2664,-5.2604,-5.2672,-5.2569,-5.2662,-5.2584,-5.2603,-5.2594,-5.26,-5.2603,-5.2489,-5.2664,-5.2952,-5.298,-5.2607,-5.2604,-5.2601,0,-5.2618,-5.2675,-5.276,-5.2766,-5.2745,-5.2787,-5.278,-5.2773,-5.2793,-5.2811,-5.2823,-5.285,-5.2864,-5.2886,-5.2835,-5.2765,-5.2936,-5.2828,-5.292,-5.2922,-5.296,-5.2959,-5.3256,-5.2973,-5.2973,-5.2972,-5.2972,0,-5.284,-5.2923,-5.2851,-5.2903,-5.2994,-5.2928,-5.302,-5.3003,-5.2998,-5.3046,-5.2966,-5.3013,-5.2943,-5.2984,-5.2945,-5.3028,-5.3035,-5.302,-5.3009,-5.3027,-5.3029,-5.3039,-5.3025,-5.2979,-5.2978,-5.2976,-5.2975,0,-5.3081,-5.3036,-5.3123,-5.3097,-5.3092,-5.3161,-5.3138,-5.3186,-5.3157,-5.3218,-5.3229,-5.3184,-5.3227,-5.3179,-5.3218,-5.3192,-5.3305,-5.3275,-5.3306,-5.3297,-5.3392,-5.3385,-5.3707,-5.3746,-5.3438,-5.3441,-5.3443,0,-5.3226,-5.3288,-5.3269,-5.3295,-5.3294,-5.3337,-5.3357,-5.3296,-5.332,-5.3324,-5.3372,-5.3408,-5.3434,-5.3508,-5.3479,-5.3509,-5.3479,-5.359,-5.3483,-5.35,-5.3481,-5.3479,-5.3485,-5.3612,-5.3616,-5.3619,-5.3621,0,-5.3488,-5.3463,-5.3495,-5.3521,-5.3547,-5.3564,-5.3575,-5.3601,-5.3537,-5.3569,-5.3612,-5.3633,-5.3674,-5.3711,-5.3734,-5.3727,-5.3665,-5.3655,-5.3678,-5.3698,-5.3714,-5.3707,-5.3366,-5.3648,-5.3645,-5.3643,-5.3642,-5.3641,-5.3686,-5.3737,-5.3732,-5.3771,-5.3772,-5.3785,-5.3829,-5.3805,-5.384,-5.3869,-5.383,-5.3885,-5.3883,-5.3906,-5.3907,-5.3949,-5.3902,-5.3935,-5.3943,-5.3953,-5.3967,-5.3707,-5.3953,-5.3952,-5.3951,-5.3951,-5.395,0,-5.3944,-5.3937,-5.3973,-5.3991,-5.4022,-5.396,-5.3969,-5.4,-5.4048,-5.4052,-5.4079,-5.413,-5.4167,-5.4141,-5.4172,-5.4211,-5.4183,-5.4221,-5.4218,-5.4218,-5.4007,-5.3985,-5.4244,-5.4244,-5.4243,-5.4243,-5.4243,-5.4243,-5.4082,-5.4165,-5.414,-5.4224,-5.4215,-5.4268,-5.4279,-5.429,-5.4293,-5.4353,-5.4383,-5.4366,-5.4358,-5.4388,-5.442,-5.4411,-5.4427,-5.4476,-5.4457,-5.4261,-5.4232,-5.4205,-5.4183,-5.4479,-5.448,-5.4664,-5.4665,-5.4667]},{"header":{"parameterUnit":"m.s-1","parameterCategory":1,"la1":30.2991,"la2":30.254,"lo1":-89.0895,"lo2":-89.0444,"dy":0.0017,"dx":0.0017,"nx":28,"ny":28,"refTime":"2024-10-17T09:00:00:Z","depth":0,"parameterNumber":3,"parameterNumberName":"V-component_of_WINDS"},"data":[0,0,0,0,0,0,0,0,0,0,0,0,0,0,0,0,0,0,0,0,0,0,0,0,0,0,0,0,0,0,0,0,0,0,0,0,0,0,0,0,0,0,0,0,0,0,0,0,0,0,0,0,0,0,0,0,0,0,-0.9652,-0.9652,0,-0.9652,-0.9652,-0.9652,-0.9587,-0.9585,-0.9584,-0.9582,-0.9585,-0.9587,-0.9588,0,0,0,0,0,0,0,0,0,0,0,0,0,-0.9596,-0.9597,-0.9652,-0.9652,-0.9652,-0.9652,-0.9652,-0.9652,-0.9587,-0.9585,-0.9583,-0.9581,-0.9584,-0.9586,-0.9588,0,0,0,0,0,0,0,0,0,0,0,0,0,-0.9611,-0.9598,-0.9652,-0.9619,-0.9617,-0.9652,-0.9652,-0.9652,-0.9588,-0.9585,-0.9583,-0.958,-0.9584,-0.9586,-0.9589,-0.9656,0,0,-0.9596,-0.9598,0,0,0,0,0,0,0,0,-0.961,-0.9613,-0.9624,-0.9622,-0.9619,-0.9617,-0.9633,-0.9654,-0.9589,-0.9599,-0.9582,-0.9579,-0.9598,-0.9599,-0.9605,-0.9656,-0.9656,-0.9597,-0.9598,-0.9599,-0.96,0,0,0,0,0,0,0,-0.9609,-0.9612,-0.9652,-0.9624,-0.9621,-0.9605,-0.9605,-0.9637,-0.9613,-0.9598,-0.9593,-0.9594,-0.9596,-0.9603,-0.9605,-0.9656,-0.9597,-0.9599,-0.96,-0.9601,-0.9763,-0.9765,0,0,0,0,0,0,-0.9612,-0.9612,-0.9652,-0.9652,-0.9608,-0.9608,-0.9608,-0.962,-0.9612,-0.9609,-0.9596,-0.9591,-0.96,-0.9602,-0.9604,-0.9683,-0.9599,-0.9602,-0.9603,-0.976,-0.9763,-0.9766,0,0,0,0,0,0,-0.9611,-0.9616,-0.9652,-0.9631,-0.9634,-0.9612,-0.9627,-0.9622,-0.9628,-0.9611,-0.9607,-0.9607,-0.9598,-0.9601,-0.9644,-0.9682,-0.9603,-0.9605,-0.9757,-0.9761,-0.9765,-0.9841,0,0,0,0,0,0,-0.961,-0.9616,-0.9642,-0.9632,-0.9635,-0.9691,-0.9629,-0.9623,-0.9633,-0.9626,-0.9621,-0.9617,-0.9596,-0.964,-0.9646,-0.9684,-0.9607,-0.9753,-0.9759,-0.9764,-0.9835,-0.9848,-0.9858,0,0,0,0,0,-0.9608,-0.9664,-0.9643,-0.9649,-0.9667,-0.9694,-0.9696,-0.9669,-0.9636,-0.9661,-0.965,-0.9617,-0.9677,-0.9645,-0.9651,-0.9691,-0.9751,-0.9757,-0.9763,-0.983,-0.9845,-0.9858,0,0,0,0,0,0,-0.968,-0.9662,-0.9639,-0.9693,-0.9695,-0.9682,-0.9714,-0.9686,-0.9698,-0.9692,-0.9659,-0.9658,-0.9706,-0.9702,-0.9667,-0.9755,-0.9708,-0.9716,-0.9757,-0.9771,-0.9782,-0.9783,-0.9609,0,0,0,0,0,-0.9702,-0.9725,-0.9708,-0.9757,-0.9759,-0.9736,-0.9747,-0.9726,-0.9728,-0.9729,-0.972,-0.9723,-0.9742,-0.9756,-0.9773,-0.9833,-0.9832,-0.9864,-0.9875,-0.9884,-0.9892,-0.9924,-0.9939,-0.9787,-0.9787,-0.9787,0,0,-0.9748,-0.9741,-0.9758,-0.9771,-0.9771,-0.9796,-0.9738,-0.9767,-0.9785,-0.9733,-0.9773,-0.9767,-0.9768,-0.982,-0.9843,-0.9819,-0.9933,-0.9892,-0.99,-0.9903,-0.9932,-0.9947,-0.996,-0.9791,-0.979,-0.979,0,0,-0.9845,-0.9842,-0.9882,-0.9882,-0.9881,-0.9865,-0.9875,-0.9866,-0.986,-0.9899,-0.9861,-0.9882,-0.9915,-0.9918,-0.9924,-1.0019,-0.999,-1.0026,-1.0086,-1.0118,-1.013,-1.014,-1.0176,-1.0189,-1.0033,-1.0033,-1.0033,0,-0.9903,-0.9939,-0.9907,-0.9938,-0.9946,-0.9898,-0.9939,-0.9941,-0.9946,-0.9952,-0.9925,-0.9965,-0.9963,-1.0015,-1.0038,-1.0044,-1.0055,-1.0027,-1.013,-1.0141,-1.015,-1.0183,-1.0197,-1.0038,-1.0037,-1.0037,-1.0036,0,-1.001,-1.0035,-1.0068,-1.0073,-1.0084,-1.012,-1.0095,-1.0109,-1.0087,-1.0074,-1.0114,-1.0109,-1.0124,-1.0134,-1.0113,-1.0183,-1.0168,-1.0136,-1.0088,-1.017,-1.02,-1.0213,-1.0044,-1.0042,-1.0041,-1.004,0,0,-1.0155,-1.0141,-1.0154,-1.0155,-1.0149,-1.0169,-1.0202,-1.0216,-1.0229,-1.0234,-1.0262,-1.029,-1.026,-1.0266,-1.0245,-1.0272,-1.035,-1.0237,-1.0236,-1.0259,-1.0428,-1.0454,-1.0469,-1.0329,-1.0331,-1.0333,-1.0428,0,-1.025,-1.0307,-1.0279,-1.0339,-1.0362,-1.0316,-1.0345,-1.0346,-1.0334,-1.0352,-1.0339,-1.036,-1.0318,-1.0322,-1.0347,-1.0335,-1.0384,-1.0328,-1.0356,-1.0358,-1.036,-1.0485,-1.0512,-1.0602,-1.044,-1.0442,-1.0443,0,-1.0369,-1.0378,-1.044,-1.043,-1.0438,-1.0465,-1.0475,-1.0492,-1.0491,-1.0481,-1.0487,-1.0459,-1.0492,-1.0442,-1.0487,-1.045,-1.0459,-1.0455,-1.0458,-1.0461,-1.0407,-1.0493,-1.063,-1.0644,-1.0462,-1.046,-1.0459,0,-1.047,-1.0497,-1.0538,-1.054,-1.0529,-1.0549,-1.0545,-1.0541,-1.0551,-1.0559,-1.0565,-1.0578,-1.0585,-1.0595,-1.0571,-1.0537,-1.062,-1.0568,-1.0613,-1.0614,-1.0634,-1.0634,-1.0777,-1.0638,-1.0638,-1.0637,-1.0637,0,-1.0581,-1.0621,-1.0583,-1.0609,-1.0652,-1.0619,-1.0663,-1.0655,-1.0651,-1.0674,-1.0635,-1.0658,-1.0623,-1.0643,-1.0624,-1.0664,-1.0668,-1.0661,-1.0656,-1.0665,-1.0667,-1.0673,-1.0667,-1.0641,-1.064,-1.0639,-1.0639,0,-1.0702,-1.0678,-1.072,-1.0705,-1.0702,-1.0735,-1.0722,-1.0745,-1.073,-1.076,-1.0765,-1.0741,-1.0762,-1.0738,-1.0757,-1.0744,-1.0799,-1.0784,-1.08,-1.0796,-1.0843,-1.084,-1.0997,-1.1016,-1.0863,-1.0865,-1.0866,0,-1.0775,-1.0805,-1.0793,-1.0805,-1.0803,-1.0823,-1.0832,-1.08,-1.0812,-1.0812,-1.0835,-1.0852,-1.0864,-1.0899,-1.0884,-1.0898,-1.0884,-1.0938,-1.0886,-1.0895,-1.0887,-1.0886,-1.0889,-1.095,-1.0951,-1.0953,-1.0954,0,-1.0908,-1.0894,-1.0908,-1.0918,-1.093,-1.0937,-1.0941,-1.0953,-1.0919,-1.0934,-1.0954,-1.0963,-1.0982,-1.0999,-1.1009,-1.1005,-1.0975,-1.097,-1.0981,-1.0993,-1.1001,-1.0999,-1.0831,-1.0967,-1.0966,-1.0965,-1.0964,-1.0964,-1.1008,-1.1032,-1.1027,-1.1044,-1.1043,-1.1047,-1.1068,-1.1055,-1.1071,-1.1083,-1.1062,-1.1088,-1.1085,-1.1095,-1.1095,-1.1114,-1.1092,-1.1108,-1.1112,-1.1117,-1.1125,-1.0996,-1.1116,-1.1115,-1.1115,-1.1115,-1.1114,0,-1.1139,-1.1133,-1.1149,-1.1155,-1.1169,-1.1136,-1.1139,-1.1153,-1.1175,-1.1175,-1.1187,-1.121,-1.1226,-1.1212,-1.1226,-1.1244,-1.1231,-1.1249,-1.1249,-1.1248,-1.1144,-1.1134,-1.126,-1.126,-1.126,-1.126,-1.126,-1.126,-1.121,-1.1249,-1.1235,-1.1273,-1.1267,-1.1291,-1.1295,-1.1299,-1.1298,-1.1325,-1.1338,-1.1328,-1.1322,-1.1335,-1.1349,-1.1344,-1.1352,-1.1376,-1.1367,-1.127,-1.1256,-1.1242,-1.1232,-1.1377,-1.1378,-1.1469,-1.147,-1.1471]}]]